Location: Dimsdale
(55.1333°N, 118.9833°W)
Time: 09:15:28
(UTC+00:00)

PCSat - Pass Details

Date: 11 December 2023
Orbit: 784 x 791 km, 67.0° (Epoch: 23 February)

Event Time Altitude Azimuth Distance (km) Brightness Sun altitude
Exits shadow 14:28:26 17° 311° (NW) 1,904 11.0 -13.3°
Maximum altitude 14:31:05 24° 350° (N) 1,583 10.9 -13.0°
Drops below altitude 10° 14:35:29 10° 45° (NE) 2,366 12.3 -12.4°
Sets 14:38:22 0° 59° (ENE) 3,297 13.3 -12.0°
